When you browse on this site, cookies collect data to enhance your experience and personalize the content and advertising you see.
Visit our Privacy Policy to learn more. By continuing to use the site, you agree to this use of cookies and data.
  • In France
  • List of Countries
  • For 7 days
  • Water Temperature
  • Satellite Maps
  • Weather Map
  • Weather Widgets
  • user-avatar
    Login

    Hourly Weather Villavicencio

    Today, 14 December, Friday

    Time Temperature Precipitation Wind Pressure Humidity
    00:00 +24°C° 0.3 mm 1 mps 719 mmHg 86%
    01:00 +22°C° 0 mm 0 mps 718 mmHg 85%
    02:00 +22°C° 0.4 mm 0 mps 718 mmHg 86%
    03:00 +22°C° 0.4 mm 0 mps 718 mmHg 86%
    04:00 +22°C° 0.4 mm 0 mps 718 mmHg 86%
    05:00 +22°C° 0.4 mm 0 mps 719 mmHg 86%
    06:00 +22°C° 0.4 mm 0 mps 719 mmHg 85%
    07:00 +22°C° 0.4 mm 0 mps 719 mmHg 85%
    08:00 +26°C° 0.3 mm 1 mps 719 mmHg 81%
    09:00 +27°C° 0.3 mm 1 mps 720 mmHg 78%
    10:00 +28°C° 0.3 mm 2 mps 720 mmHg 75%
    11:00 +28°C° 0.2 mm 2 mps 719 mmHg 73%
    12:00 +29°C° 0.2 mm 2 mps 719 mmHg 71%
    13:00 +29°C° 0.2 mm 2 mps 718 mmHg 69%
    14:00 +29°C° 0.2 mm 2 mps 718 mmHg 71%
    15:00 +29°C° 0.2 mm 2 mps 717 mmHg 72%
    16:00 +29°C° 0.2 mm 1 mps 716 mmHg 73%
    17:00 +28°C° 0.4 mm 1 mps 717 mmHg 78%
    18:00 +27°C° 0.4 mm 1 mps 717 mmHg 83%
    19:00 +25°C° 0.4 mm 1 mps 717 mmHg 87%
    20:00 +25°C° 0.2 mm 1 mps 718 mmHg 87%
    21:00 +25°C° 0.2 mm 1 mps 718 mmHg 86%
    22:00 +25°C° 0.2 mm 1 mps 719 mmHg 85%
    23:00 +25°C° 0 mm 1 mps 719 mmHg 86%

    Tomorrow, 15 December, Saturday

    Time Temperature Precipitation Wind Pressure Humidity
    00:00 +24°C° 0 mm 1 mps 719 mmHg 87%
    01:00 +24°C° 0 mm 1 mps 719 mmHg 87%
    02:00 +24°C° 0 mm 1 mps 718 mmHg 88%
    03:00 +23°C° 0 mm 1 mps 718 mmHg 89%
    04:00 +23°C° 0 mm 1 mps 718 mmHg 89%
    05:00 +23°C° 0 mm 1 mps 718 mmHg 87%
    06:00 +24°C° 0 mm 1 mps 719 mmHg 85%
    07:00 +24°C° 0 mm 1 mps 719 mmHg 82%
    08:00 +26°C° 0 mm 1 mps 720 mmHg 72%
    09:00 +29°C° 0 mm 2 mps 720 mmHg 61%
    10:00 +31°C° 0 mm 2 mps 720 mmHg 50%
    11:00 +31°C° 0 mm 3 mps 720 mmHg 50%
    12:00 +33°C° 0 mm 3 mps 719 mmHg 50%
    13:00 +33°C° 0 mm 3 mps 718 mmHg 50%
    14:00 +32°C° 0 mm 2 mps 717 mmHg 53%
    15:00 +31°C° 0 mm 2 mps 717 mmHg 55%
    16:00 +31°C° 0 mm 2 mps 716 mmHg 58%
    17:00 +29°C° 0 mm 2 mps 717 mmHg 64%
    18:00 +27°C° 0 mm 1 mps 717 mmHg 71%
    19:00 +25°C° 0 mm 1 mps 717 mmHg 77%
    20:00 +25°C° 0 mm 1 mps 718 mmHg 77%
    21:00 +24°C° 0 mm 1 mps 719 mmHg 76%
    22:00 +24°C° 0 mm 1 mps 719 mmHg 76%
    23:00 +24°C° 0 mm 1 mps 719 mmHg 77%

    Day after tomorrow, 16 December, Sunday

    Time Temperature Precipitation Wind Pressure Humidity
    00:00 +23°C° 0 mm 1 mps 719 mmHg 77%
    01:00 +23°C° 0 mm 1 mps 719 mmHg 78%
    02:00 +23°C° 0 mm 1 mps 719 mmHg 79%
    03:00 +22°C° 0 mm 1 mps 718 mmHg 79%
    04:00 +22°C° 0 mm 1 mps 718 mmHg 80%
    05:00 +23°C° 0 mm 1 mps 719 mmHg 77%
    06:00 +23°C° 0 mm 1 mps 719 mmHg 74%
    07:00 +24°C° 0 mm 1 mps 720 mmHg 72%
    08:00 +26°C° 0 mm 1 mps 720 mmHg 63%
    09:00 +29°C° 0 mm 2 mps 721 mmHg 55%
    10:00 +31°C° 0 mm 2 mps 721 mmHg 47%
    11:00 +32°C° 0 mm 2 mps 720 mmHg 47%
    12:00 +33°C° 0 mm 3 mps 719 mmHg 47%
    13:00 +34°C° 0 mm 3 mps 718 mmHg 47%
    14:00 +32°C° 0 mm 2 mps 717 mmHg 50%
    15:00 +32°C° 0 mm 2 mps 716 mmHg 54%
    16:00 +31°C° 0 mm 2 mps 716 mmHg 57%
    17:00 +29°C° 0 mm 2 mps 716 mmHg 65%
    18:00 +27°C° 0 mm 1 mps 716 mmHg 73%
    19:00 +25°C° 0 mm 1 mps 717 mmHg 80%
    20:00 +25°C° 0 mm 1 mps 717 mmHg 80%
    21:00 +25°C° 0 mm 1 mps 718 mmHg 80%
    22:00 +25°C° 0 mm 1 mps 719 mmHg 80%
    23:00 +24°C° 0 mm 1 mps 718 mmHg 82%

    17 December, Monday

    Time Temperature Precipitation Wind Pressure Humidity
    00:00 +24°C° 0 mm 1 mps 718 mmHg 83%
    01:00 +24°C° 0 mm 1 mps 718 mmHg 84%
    02:00 +23°C° 0 mm 1 mps 718 mmHg 85%
    03:00 +23°C° 0 mm 1 mps 717 mmHg 85%
    04:00 +23°C° 0 mm 1 mps 717 mmHg 86%
    05:00 +24°C° 0 mm 1 mps 718 mmHg 85%
    06:00 +24°C° 0 mm 1 mps 718 mmHg 83%
    07:00 +25°C° 0 mm 1 mps 719 mmHg 82%
    08:00 +27°C° 0 mm 1 mps 719 mmHg 71%
    09:00 +29°C° 0 mm 1 mps 719 mmHg 60%
    10:00 +31°C° 0 mm 2 mps 720 mmHg 49%
    11:00 +32°C° 0 mm 2 mps 719 mmHg 46%
    12:00 +32°C° 0 mm 2 mps 718 mmHg 43%
    13:00 +34°C° 0 mm 2 mps 717 mmHg 40%
    14:00 +34°C° 0 mm 2 mps 716 mmHg 43%
    15:00 +32°C° 0 mm 2 mps 715 mmHg 47%
    16:00 +31°C° 0 mm 1 mps 715 mmHg 50%
    17:00 +29°C° 0 mm 1 mps 715 mmHg 57%
    18:00 +27°C° 0 mm 1 mps 716 mmHg 63%
    19:00 +25°C° 0 mm 1 mps 716 mmHg 69%
    20:00 +25°C° 0 mm 1 mps 717 mmHg 70%
    21:00 +24°C° 0 mm 1 mps 718 mmHg 70%
    22:00 +24°C° 0 mm 1 mps 718 mmHg 70%
    23:00 +24°C° 0 mm 1 mps 718 mmHg 71%

    18 December, Tuesday

    Time Temperature Precipitation Wind Pressure Humidity
    00:00 +23°C° 0 mm 1 mps 717 mmHg 71%
    01:00 +23°C° 0 mm 1 mps 717 mmHg 72%
    02:00 +23°C° 0 mm 1 mps 717 mmHg 72%
    03:00 +23°C° 0 mm 1 mps 717 mmHg 73%
    04:00 +22°C° 0 mm 1 mps 717 mmHg 73%
    05:00 +23°C° 0 mm 1 mps 717 mmHg 72%
    06:00 +24°C° 0 mm 1 mps 718 mmHg 72%
    07:00 +24°C° 0 mm 1 mps 719 mmHg 71%
    08:00 +27°C° 0 mm 1 mps 719 mmHg 63%
    09:00 +29°C° 0 mm 1 mps 719 mmHg 55%
    10:00 +31°C° 0 mm 2 mps 720 mmHg 47%
    11:00 +32°C° 0 mm 2 mps 719 mmHg 46%
    12:00 +32°C° 0 mm 2 mps 718 mmHg 44%
    13:00 +34°C° 0 mm 2 mps 717 mmHg 43%
    14:00 +32°C° 0 mm 2 mps 716 mmHg 46%
    15:00 +32°C° 0 mm 2 mps 716 mmHg 49%
    16:00 +31°C° 0 mm 2 mps 715 mmHg 52%
    17:00 +29°C° 0 mm 1 mps 716 mmHg 59%
    18:00 +27°C° 0 mm 1 mps 716 mmHg 66%
    19:00 +25°C° 0 mm 1 mps 717 mmHg 73%
    20:00 +25°C° 0 mm 1 mps 717 mmHg 72%
    21:00 +25°C° 0 mm 1 mps 718 mmHg 71%
    22:00 +25°C° 0 mm 1 mps 718 mmHg 70%
    23:00 +25°C° 0 mm 1 mps 718 mmHg 72%

    19 December, Wednesday

    Time Temperature Precipitation Wind Pressure Humidity
    00:00 +25°C° 0 mm 1 mps 718 mmHg 74%
    01:00 +24°C° 0 mm 1 mps 717 mmHg 76%
    02:00 +24°C° 0 mm 1 mps 717 mmHg 77%
    03:00 +24°C° 0 mm 1 mps 717 mmHg 79%
    04:00 +23°C° 0 mm 1 mps 717 mmHg 80%
    05:00 +24°C° 0 mm 1 mps 718 mmHg 79%
    06:00 +24°C° 0 mm 1 mps 718 mmHg 78%
    07:00 +25°C° 0 mm 1 mps 719 mmHg 77%
    08:00 +27°C° 0 mm 1 mps 719 mmHg 67%
    09:00 +29°C° 0 mm 1 mps 719 mmHg 58%
    10:00 +31°C° 0 mm 1 mps 719 mmHg 48%
    11:00 +32°C° 0 mm 2 mps 718 mmHg 47%
    12:00 +32°C° 0 mm 2 mps 717 mmHg 46%
    13:00 +34°C° 0 mm 2 mps 716 mmHg 44%
    14:00 +32°C° 0 mm 2 mps 716 mmHg 47%
    15:00 +32°C° 0 mm 2 mps 715 mmHg 51%
    16:00 +32°C° 0 mm 1 mps 715 mmHg 54%
    17:00 +30°C° 0 mm 1 mps 716 mmHg 61%
    18:00 +28°C° 0 mm 1 mps 716 mmHg 68%
    19:00 +26°C° 0 mm 1 mps 717 mmHg 74%
    20:00 +26°C° 0.2 mm 1 mps 717 mmHg 75%
    21:00 +25°C° 0.2 mm 1 mps 718 mmHg 76%
    22:00 +25°C° 0.2 mm 1 mps 718 mmHg 77%
    23:00 +25°C° 0.1 mm 1 mps 718 mmHg 78%
    Show more